Zurück zum Katalog

OPS 9343

IDSCS 21

LostMilitärMEO
NORAD 3286·PAYLOAD·🇺🇸 United States

Gestartet Jun 13, 1968 von Cape Canaveral Space Force Station

Loading…

Nächste Überflüge (nächste 24 Stunden)

TLE

VeraltetSource: Space-Track

Epoche: Jul 25, 2026, 03:46 UTC

1  3286U 68050C   26206.15746587 -.00000115  00000-0  00000+0 0  9994
2  3286   7.2953  51.5424 0019267 150.6601  39.9433  1.07758681 47861

Verfolge OPS 9343 in Echtzeit mit AllMySat

Download on the App Store